Location: Atherton
(17.2661°S, 145.4859°E)
Time: 18:43:26
(UTC+10:00)

ACS3 Solar Sail - Pass Details

Date: 24 May 2025
Orbit: 920 x 1019 km, 97.5° (Epoch: 20 June)

Event Time Altitude Azimuth Distance (km) Brightness Sun altitude
Rises 18:38:24 0° 187° (S) 3,775 4.8 -11.3°
Reaches altitude 10° 18:41:15 10° 198° (SSW) 2,823 4.2 -12.0°
Maximum altitude 18:46:32 28° 254° (WSW) 1,817 3.9 -13.2°
Drops below altitude 10° 18:51:47 10° 310° (NW) 2,798 5.3 -14.4°
Sets 18:54:38 0° 321° (NW) 3,734 5.8 -15.0°
